Weather History for KOZR - February, 2014

Change the Weather History Date:

Saturday, February 1, 2014

  Actual Average Record
Temperature  
Mean Temperature 56 °F -  
Max Temperature 67 °F 57 °F 71 °F (2011)
Min Temperature 44 °F 38 °F 28 °F (2000)
Degree Days  
Heating Degree Days 10    
Growing Degree Days 6 (Base 50)    
Moisture  
Dew Point 49 °F    
Average Humidity 88    
Maximum Humidity 100    
Minimum Humidity 66    
Precipitation  
Precipitation 0.00 in - - ()
Sea Level Pressure  
Sea Level Pressure 30.12 in    
Wind  
Wind Speed 4 mph (East)    
Max Wind Speed 8 mph    
Max Gust Speed -    
Visibility 7 miles    
Events Fog    
Averages and records for this station are not official NWS values.
T = Trace of Precipitation, MM = Missing Value Source: NWS Daily Summary

Daily Weather History Graph

Daily Weather History Graph

Search for Another Location

Airport or City:

Trip Planner

Search our weather history database for the weather conditions in past years. The results will help you decide how hot, cold, wet, or windy it might be!

Date:

Astronomy

Feb. 01, 2014 Rise Set
Actual Time 6:35 AM CST 5:18 PM CST
Civil Twilight 6:09 AM CST 5:43 PM CST
Nautical Twilight 5:40 AM CST 6:12 PM CST
Astronomical Twilight 5:12 AM CST 6:41 PM CST
Moon 7:35 AM CST (2/1) 7:39 PM CST (2/1)
Length of Visible Light 11h 33m
Length of Day
10h 42m
Waxing Crescent, 5% of the Moon is Illuminated
Feb 1
Waxing Crescent
Feb 6
First Quarter
Feb 14
Full
Feb 22
Last Quarter
Mar 1
New

Hourly Weather History & Observations

Time (CST) Temp. Windchill Dew Point Humidity Pressure Visibility Wind Dir Wind Speed Gust Speed Precip Events Conditions
12:38 AM 44.6 °F 41.4 °F 37.4 °F 76% 30.11 in 10.0 mi NE 5.8 mph - N/A   Overcast
12:58 AM 44.4 °F 42.9 °F 37.0 °F 75% 30.12 in 10.0 mi NE 3.5 mph - N/A   Overcast
1:33 AM 44.6 °F 41.4 °F 37.4 °F 76% 30.10 in 10.0 mi NE 5.8 mph - N/A   Overcast
1:58 AM 44.8 °F 41.6 °F 37.6 °F 76% 30.10 in 10.0 mi ENE 5.8 mph - N/A   Overcast
2:58 AM 45.5 °F 43.2 °F 39.0 °F 78% 30.10 in 10.0 mi ENE 4.6 mph - N/A   Overcast
3:58 AM 44.8 °F 42.4 °F 39.7 °F 82% 30.10 in 10.0 mi ENE 4.6 mph - N/A   Overcast
4:08 AM 44.6 °F - 39.2 °F 81% 30.09 in 10.0 mi NE 2.3 mph - N/A   Overcast
4:28 AM 44.6 °F - 41.0 °F 87% 30.10 in 10.0 mi North 2.3 mph - N/A   Overcast
4:43 AM 46.4 °F 44.3 °F 41.0 °F 81% 30.10 in 10.0 mi North 4.6 mph - N/A   Overcast
4:58 AM 45.7 °F 44.4 °F 41.0 °F 84% 30.11 in 10.0 mi NNE 3.5 mph - N/A   Overcast
5:08 AM 46.4 °F 45.2 °F 41.0 °F 81% 30.10 in 10.0 mi NE 3.5 mph - N/A   Overcast
5:33 AM 46.4 °F 44.3 °F 41.0 °F 81% 30.11 in 10.0 mi NNE 4.6 mph - N/A   Overcast
5:58 AM 45.7 °F 44.4 °F 41.2 °F 84% 30.11 in 10.0 mi NE 3.5 mph - N/A   Overcast
6:03 AM 46.4 °F 45.2 °F 41.0 °F 81% 30.11 in 10.0 mi NNE 3.5 mph - N/A   Overcast
6:58 AM 45.7 °F - 42.1 °F 87% 30.13 in 10.0 mi NNE 2.3 mph - N/A   Overcast
7:48 AM 46.4 °F - 44.6 °F 93% 30.13 in 5.0 mi ESE 2.3 mph - N/A   Overcast
7:58 AM 46.0 °F - 45.0 °F 96% 30.14 in 4.0 mi East 2.3 mph - N/A   Overcast
8:18 AM 46.4 °F - 46.4 °F 100% 30.14 in 5.0 mi ESE 1.2 mph - N/A   Overcast
8:46 AM 48.2 °F - 46.4 °F 93% 30.14 in 3.0 mi ESE 2.3 mph - N/A   Overcast
8:56 AM 48.2 °F - 46.4 °F 93% 30.14 in 3.0 mi ESE 2.3 mph - N/A   Overcast
8:58 AM 48.2 °F - 47.1 °F 96% 30.15 in 3.0 mi SE 2.3 mph - N/A   Overcast
9:08 AM 48.2 °F - 48.2 °F 100% 30.15 in 2.5 mi East 2.3 mph - N/A   Overcast
9:13 AM 48.2 °F - 48.2 °F 100% 30.15 in 3.0 mi ENE 2.3 mph - N/A   Overcast
9:33 AM 50.0 °F - 48.2 °F 94% 30.16 in 3.0 mi NE 1.2 mph - N/A   Overcast
9:58 AM 50.2 °F - 49.1 °F 96% 30.16 in 4.0 mi ENE 2.3 mph - N/A   Overcast
10:08 AM 50.0 °F - 50.0 °F 100% 30.16 in 5.0 mi NE 2.3 mph - N/A   Overcast
10:28 AM 51.8 °F - 50.0 °F 94% 30.15 in 5.0 mi NE 3.5 mph - N/A   Overcast
10:58 AM 53.6 °F - 51.8 °F 94% 30.15 in 5.0 mi ESE 2.3 mph - N/A   Overcast
11:58 AM 56.7 °F - 53.4 °F 89% 30.13 in 10.0 mi ENE 3.5 mph - N/A   Overcast
12:03 PM 57.2 °F - 53.6 °F 88% 30.12 in 10.0 mi NE 4.6 mph - N/A   Overcast
12:28 PM 59.0 °F - 53.6 °F 82% 30.10 in 10.0 mi Calm Calm - N/A   Overcast
12:58 PM 59.9 °F - 54.7 °F 83% 30.10 in 10.0 mi ESE 3.5 mph - N/A   Overcast
1:03 PM 60.8 °F - 55.4 °F 82% 30.08 in 10.0 mi Variable 2.3 mph - N/A   Overcast
1:38 PM 64.4 °F - 55.4 °F 73% 30.07 in 10.0 mi Variable 6.9 mph - N/A   Mostly Cloudy
1:53 PM 64.4 °F - 55.4 °F 73% 30.07 in 10.0 mi SSE 5.8 mph - N/A   Scattered Clouds
1:58 PM 64.4 °F - 55.4 °F 73% 30.08 in 10.0 mi Variable 4.6 mph - N/A   Scattered Clouds
2:23 PM 64.4 °F - 55.4 °F 73% 30.07 in 10.0 mi South 3.5 mph - N/A   Mostly Cloudy
2:28 PM 64.4 °F - 55.4 °F 73% 30.08 in 10.0 mi West 5.8 mph - N/A   Scattered Clouds
2:43 PM 66.2 °F - 55.4 °F 68% 30.07 in 10.0 mi SSW 4.6 mph - N/A   Mostly Cloudy
2:58 PM 65.8 °F - 54.9 °F 68% 30.08 in 10.0 mi SW 2.3 mph - N/A   Mostly Cloudy
3:03 PM 64.4 °F - 55.4 °F 73% 30.07 in 10.0 mi Variable 2.3 mph - N/A   Mostly Cloudy
3:58 PM 67.1 °F - 55.2 °F 66% 30.09 in 10.0 mi Variable 1.2 mph - N/A   Partly Cloudy
4:58 PM 64.9 °F - 55.0 °F 70% 30.09 in 10.0 mi East 2.3 mph - N/A   Clear
5:58 PM 59.7 °F - 54.3 °F 82% 30.10 in 10.0 mi East 4.6 mph - N/A   Clear
6:58 PM 57.7 °F - 54.1 °F 88% 30.11 in 10.0 mi East 4.6 mph - N/A   Scattered Clouds
7:58 PM 57.4 °F - 54.9 °F 91% 30.13 in 10.0 mi East 5.8 mph - N/A   Mostly Cloudy
8:58 PM 56.5 °F - 54.5 °F 93% 30.13 in 10.0 mi ESE 5.8 mph - N/A   Mostly Cloudy
9:58 PM 54.0 °F - 53.1 °F 97% 30.13 in 10.0 mi East 4.6 mph - N/A   Clear
10:18 PM 53.6 °F - 53.6 °F 100% 30.13 in 9.0 mi East 4.6 mph - N/A   Partly Cloudy
10:28 PM 53.6 °F - 53.6 °F 100% 30.13 in 8.0 mi ESE 6.9 mph - N/A   Mostly Cloudy
10:33 PM 53.6 °F - 53.6 °F 100% 30.13 in 9.0 mi ESE 5.8 mph - N/A   Mostly Cloudy
10:48 PM 53.6 °F - 53.6 °F 100% 30.13 in 8.0 mi ESE 8.1 mph - N/A   Overcast
10:58 PM 54.1 °F - 53.6 °F 98% 30.15 in 4.0 mi ESE 4.6 mph - N/A   Mostly Cloudy
11:03 PM 53.6 °F - 53.6 °F 100% 30.14 in 3.0 mi ESE 4.6 mph - N/A   Scattered Clouds
11:08 PM 53.6 °F - 53.6 °F 100% 30.14 in 2.5 mi ESE 3.5 mph - N/A   Scattered Clouds
11:13 PM 53.6 °F - 53.6 °F 100% 30.13 in 1.8 mi East 3.5 mph - N/A   Partly Cloudy
11:18 PM 53.6 °F - 53.6 °F 100% 30.13 in 1.2 mi East 4.6 mph - N/A   Clear
11:23 PM 53.6 °F - 53.6 °F 100% 30.13 in 0.8 mi ESE 5.8 mph - N/A   Clear
11:28 PM 53.6 °F - 53.6 °F 100% 30.13 in 0.8 mi ESE 4.6 mph - N/A   Clear
11:33 PM 53.6 °F - 53.6 °F 100% 30.13 in 0.5 mi East 4.6 mph - N/A Fog Fog
11:43 PM 53.6 °F - 53.6 °F 100% 30.13 in 0.5 mi East 5.8 mph - N/A Fog Fog
11:48 PM 53.6 °F - 53.6 °F 100% 30.13 in 0.5 mi ESE 5.8 mph - N/A Fog Fog
11:58 PM 53.6 °F - 53.2 °F 99% 30.14 in 0.5 mi East 4.6 mph - N/A Fog Fog